Time,TemperatureF,DewpointF,PressureIn,WindDirection,WindDirectionDegrees,WindSpeedMPH,WindSpeedGustMPH,Humidity,HourlyPrecipIn,Conditions,Clouds,dailyrainin,SoftwareType,DateUTC
2013-03-26 00:03:00,28.7,6.0,30.07,West,275,0.0,-999.0,38,-99.99,,,0.00,weatherlink.com 1.10,2013-03-26 06:03:00,
2013-03-26 00:18:00,29.3,5.0,30.04,West,275,0.0,-999.0,36,-99.99,,,0.00,weatherlink.com 1.10,2013-03-26 06:18:00,
2013-03-26 00:33:00,30.6,5.0,30.03,West,275,2.0,-999.0,34,-99.99,,,0.00,weatherlink.com 1.10,2013-03-26 06:33:00,
2013-03-26 00:48:00,28.1,5.0,30.05,West,275,2.0,-999.0,37,-99.99,,,0.00,weatherlink.com 1.10,2013-03-26 06:48:00,
2013-03-26 01:03:00,28.5,6.0,30.05,West,275,2.0,-999.0,38,-99.99,,,0.00,weatherlink.com 1.10,2013-03-26 07:03:00,
2013-03-26 01:18:00,27.3,5.0,30.02,West,275,0.0,-999.0,39,-99.99,,,0.00,weatherlink.com 1.10,2013-03-26 07:18:00,
2013-03-26 01:33:00,26.1,5.0,30.04,West,275,0.0,-999.0,40,-99.99,,,0.00,weatherlink.com 1.10,2013-03-26 07:33:00,
2013-03-26 01:50:00,26.3,5.0,30.04,West,275,0.0,-999.0,40,-99.99,,,0.00,weatherlink.com 1.10,2013-03-26 07:50:00,
2013-03-26 02:03:00,25.4,5.0,30.04,West,275,1.0,-999.0,42,-99.99,,,0.00,weatherlink.com 1.10,2013-03-26 08:03:00,
2013-03-26 02:18:00,24.7,5.0,30.04,West,275,3.0,-999.0,43,-99.99,,,0.00,weatherlink.com 1.10,2013-03-26 08:18:00,
2013-03-26 02:33:00,25.1,6.0,30.05,West,275,1.0,-999.0,44,-99.99,,,0.00,weatherlink.com 1.10,2013-03-26 08:33:00,
2013-03-26 02:48:00,25.1,6.0,30.04,West,275,4.0,-999.0,44,-99.99,,,0.00,weatherlink.com 1.10,2013-03-26 08:48:00,
2013-03-26 03:03:00,24.4,6.0,30.05,West,275,0.0,-999.0,46,-99.99,,,0.00,weatherlink.com 1.10,2013-03-26 09:03:00,
2013-03-26 03:18:00,24.2,7.0,30.04,West,275,2.0,-999.0,48,-99.99,,,0.00,weatherlink.com 1.10,2013-03-26 09:18:00,
2013-03-26 03:33:00,23.3,6.0,30.04,West,275,3.0,-999.0,48,-99.99,,,0.00,weatherlink.com 1.10,2013-03-26 09:33:00,
2013-03-26 03:48:00,23.8,6.0,30.03,West,275,0.0,-999.0,47,-99.99,,,0.00,weatherlink.com 1.10,2013-03-26 09:48:00,
2013-03-26 04:03:00,23.0,6.0,30.03,West,275,0.0,-999.0,48,-99.99,,,0.00,weatherlink.com 1.10,2013-03-26 10:03:00,
2013-03-26 04:18:00,23.3,8.0,30.04,West,275,1.0,-999.0,51,-99.99,,,0.00,weatherlink.com 1.10,2013-03-26 10:18:00,
2013-03-26 04:33:00,24.1,7.0,30.02,NNE,28,3.0,-999.0,48,-99.99,,,0.00,weatherlink.com 1.10,2013-03-26 10:33:00,
2013-03-26 04:48:00,24.5,6.0,30.02,NE,56,3.0,-999.0,45,-99.99,,,0.00,weatherlink.com 1.10,2013-03-26 10:48:00,
2013-03-26 05:03:00,24.8,7.0,30.02,NNE,26,3.0,-999.0,46,-99.99,,,0.00,weatherlink.com 1.10,2013-03-26 11:03:00,
2013-03-26 05:18:00,25.1,7.0,30.02,NNE,18,2.0,-999.0,46,-99.99,,,0.00,weatherlink.com 1.10,2013-03-26 11:18:00,
2013-03-26 05:35:00,24.4,7.0,30.02,NNE,18,4.0,-999.0,48,-99.99,,,0.00,weatherlink.com 1.10,2013-03-26 11:35:00,
2013-03-26 05:49:00,24.2,8.0,30.03,NE,41,6.0,-999.0,50,-99.99,,,0.00,weatherlink.com 1.10,2013-03-26 11:49:00,
2013-03-26 06:05:00,24.7,8.0,30.03,NE,39,2.0,-999.0,49,-99.99,,,0.00,weatherlink.com 1.10,2013-03-26 12:05:00,
2013-03-26 06:20:00,24.7,7.0,30.02,NE,37,3.0,-999.0,48,-99.99,,,0.00,weatherlink.com 1.10,2013-03-26 12:20:00,
2013-03-26 06:34:00,24.2,7.0,30.03,NE,37,2.0,-999.0,49,-99.99,,,0.00,weatherlink.com 1.10,2013-03-26 12:34:00,
2013-03-26 06:49:00,24.2,8.0,30.04,NE,37,2.0,-999.0,50,-99.99,,,0.00,weatherlink.com 1.10,2013-03-26 12:49:00,
2013-03-26 07:05:00,25.0,9.0,30.03,NE,36,0.0,-999.0,50,-99.99,,,0.00,weatherlink.com 1.10,2013-03-26 13:05:00,
2013-03-26 07:20:00,25.1,9.0,30.07,NE,37,4.0,-999.0,51,-99.99,,,0.00,weatherlink.com 1.10,2013-03-26 13:20:00,
2013-03-26 07:35:00,26.4,9.0,30.07,NE,39,6.0,-999.0,48,-99.99,,,0.00,weatherlink.com 1.10,2013-03-26 13:35:00,
2013-03-26 07:49:00,27.8,10.0,30.06,NE,46,2.0,-999.0,47,-99.99,,,0.00,weatherlink.com 1.10,2013-03-26 13:49:00,
2013-03-26 08:05:00,29.3,10.0,30.05,NE,44,4.0,-999.0,44,-99.99,,,0.00,weatherlink.com 1.10,2013-03-26 14:05:00,
2013-03-26 08:20:00,31.6,10.0,30.06,NE,43,2.0,-999.0,41,-99.99,,,0.00,weatherlink.com 1.10,2013-03-26 14:20:00,
2013-03-26 08:35:00,34.0,12.0,30.05,NNE,30,5.0,-999.0,41,-99.99,,,0.00,weatherlink.com 1.10,2013-03-26 14:35:00,
2013-03-26 08:51:00,38.6,12.0,30.02,North,8,6.0,-999.0,34,-99.99,,,0.00,weatherlink.com 1.10,2013-03-26 14:51:00,
2013-03-26 09:06:00,42.3,11.0,30.00,NE,46,6.0,-999.0,28,-99.99,,,0.00,weatherlink.com 1.10,2013-03-26 15:06:00,
2013-03-26 09:38:00,46.0,10.0,30.00,East,80,5.0,-999.0,23,-99.99,,,0.00,weatherlink.com 1.10,2013-03-26 15:38:00,
2013-03-26 09:52:00,45.8,10.0,29.99,ENE,75,10.0,-999.0,23,-99.99,,,0.00,weatherlink.com 1.10,2013-03-26 15:52:00,
2013-03-26 10:07:00,46.7,11.0,29.99,ENE,72,3.0,-999.0,23,-99.99,,,0.00,weatherlink.com 1.10,2013-03-26 16:07:00,
2013-03-26 10:22:00,47.3,10.0,30.01,East,84,4.0,-999.0,22,-99.99,,,0.00,weatherlink.com 1.10,2013-03-26 16:22:00,
2013-03-26 10:37:00,48.2,11.0,29.99,East,86,4.0,-999.0,22,-99.99,,,0.00,weatherlink.com 1.10,2013-03-26 16:37:00,
2013-03-26 10:52:00,50.2,11.0,29.99,East,86,6.0,-999.0,21,-99.99,,,0.00,weatherlink.com 1.10,2013-03-26 16:52:00,
2013-03-26 11:07:00,51.0,11.0,29.98,East,96,3.0,-999.0,20,-99.99,,,0.00,weatherlink.com 1.10,2013-03-26 17:07:00,
2013-03-26 11:23:00,52.5,11.0,29.98,ENE,63,4.0,-999.0,19,-99.99,,,0.00,weatherlink.com 1.10,2013-03-26 17:23:00,
2013-03-26 11:38:00,52.3,11.0,29.96,NE,56,2.0,-999.0,19,-99.99,,,0.00,weatherlink.com 1.10,2013-03-26 17:38:00,
2013-03-26 11:52:00,52.8,11.0,29.96,East,80,9.0,-999.0,19,-99.99,,,0.00,weatherlink.com 1.10,2013-03-26 17:52:00,
2013-03-26 12:08:00,54.8,12.0,29.94,East,91,5.0,-999.0,18,-99.99,,,0.00,weatherlink.com 1.10,2013-03-26 18:08:00,
2013-03-26 12:22:00,54.5,12.0,29.92,East,101,3.0,-999.0,18,-99.99,,,0.00,weatherlink.com 1.10,2013-03-26 18:22:00,
2013-03-26 12:37:00,55.6,11.0,29.92,ENE,76,6.0,-999.0,17,-99.99,,,0.00,weatherlink.com 1.10,2013-03-26 18:37:00,
2013-03-26 12:53:00,56.6,12.0,29.92,SE,137,6.0,-999.0,17,-99.99,,,0.00,weatherlink.com 1.10,2013-03-26 18:53:00,
2013-03-26 13:08:00,57.2,13.0,29.91,SE,139,0.0,-999.0,17,-99.99,,,0.00,weatherlink.com 1.10,2013-03-26 19:08:00,
2013-03-26 13:24:00,58.1,13.0,29.91,East,99,4.0,-999.0,17,-99.99,,,0.00,weatherlink.com 1.10,2013-03-26 19:24:00,
2013-03-26 13:38:00,58.6,12.0,29.90,ENE,65,4.0,-999.0,16,-99.99,,,0.00,weatherlink.com 1.10,2013-03-26 19:38:00,
2013-03-26 13:54:00,59.9,12.0,29.87,WSW,239,4.0,-999.0,15,-99.99,,,0.00,weatherlink.com 1.10,2013-03-26 19:54:00,
2013-03-26 14:08:00,61.2,13.0,29.87,SSW,200,6.0,-999.0,15,-99.99,,,0.00,weatherlink.com 1.10,2013-03-26 20:08:00,
2013-03-26 14:25:00,59.9,12.0,29.88,SSW,210,5.0,-999.0,15,-99.99,,,0.00,weatherlink.com 1.10,2013-03-26 20:25:00,
2013-03-26 14:38:00,59.2,13.0,29.87,South,184,2.0,-999.0,16,-99.99,,,0.00,weatherlink.com 1.10,2013-03-26 20:38:00,
2013-03-26 14:54:00,59.2,13.0,29.87,South,184,0.0,-999.0,16,-99.99,,,0.00,weatherlink.com 1.10,2013-03-26 20:54:00,
2013-03-26 15:09:00,60.2,14.0,29.86,WSW,247,3.0,-999.0,16,-99.99,,,0.00,weatherlink.com 1.10,2013-03-26 21:09:00,
2013-03-26 15:25:00,60.5,12.0,29.85,West,263,4.0,-999.0,15,-99.99,,,0.00,weatherlink.com 1.10,2013-03-26 21:25:00,
2013-03-26 15:40:00,60.5,12.0,29.85,WSW,255,6.0,-999.0,15,-99.99,,,0.00,weatherlink.com 1.10,2013-03-26 21:40:00,
2013-03-26 15:55:00,60.5,12.0,29.85,WSW,242,0.0,-999.0,15,-99.99,,,0.00,weatherlink.com 1.10,2013-03-26 21:55:00,
2013-03-26 16:10:00,60.4,12.0,29.83,North,353,1.0,-999.0,15,-99.99,,,0.00,weatherlink.com 1.10,2013-03-26 22:10:00,
2013-03-26 16:24:00,59.9,12.0,29.81,West,264,3.0,-999.0,15,-99.99,,,0.00,weatherlink.com 1.10,2013-03-26 22:24:00,
2013-03-26 16:40:00,60.1,12.0,29.82,West,265,2.0,-999.0,15,-99.99,,,0.00,weatherlink.com 1.10,2013-03-26 22:40:00,
2013-03-26 16:55:00,59.9,12.0,29.82,West,266,6.0,-999.0,15,-99.99,,,0.00,weatherlink.com 1.10,2013-03-26 22:55:00,
2013-03-26 17:40:00,59.9,12.0,29.81,West,266,0.0,-999.0,15,-99.99,,,0.00,weatherlink.com 1.10,2013-03-26 23:40:00,
2013-03-26 17:56:00,59.9,12.0,29.80,West,266,1.0,-999.0,15,-99.99,,,0.00,weatherlink.com 1.10,2013-03-26 23:56:00,
2013-03-26 18:11:00,59.3,11.0,29.80,West,266,0.0,-999.0,15,-99.99,,,0.00,weatherlink.com 1.10,2013-03-27 00:11:00,
2013-03-26 18:25:00,58.9,13.0,29.80,SSW,212,0.0,-999.0,16,-99.99,,,0.00,weatherlink.com 1.10,2013-03-27 00:25:00,
2013-03-26 18:40:00,58.3,12.0,29.80,SSW,212,0.0,-999.0,16,-99.99,,,0.00,weatherlink.com 1.10,2013-03-27 00:40:00,
2013-03-26 19:11:00,56.6,12.0,29.81,SSW,212,0.0,-999.0,17,-99.99,,,0.00,weatherlink.com 1.10,2013-03-27 01:11:00,
2013-03-26 19:26:00,55.0,12.0,29.80,SSW,212,0.0,-999.0,18,-99.99,,,0.00,weatherlink.com 1.10,2013-03-27 01:26:00,
2013-03-26 19:41:00,51.9,12.0,29.81,SSW,212,0.0,-999.0,20,-99.99,,,0.00,weatherlink.com 1.10,2013-03-27 01:41:00,
2013-03-26 19:56:00,50.5,13.0,29.82,SSW,212,0.0,-999.0,22,-99.99,,,0.00,weatherlink.com 1.10,2013-03-27 01:56:00,
2013-03-26 20:11:00,47.7,11.0,29.83,SSW,212,2.0,-999.0,23,-99.99,,,0.00,weatherlink.com 1.10,2013-03-27 02:11:00,
2013-03-26 20:26:00,44.9,10.0,29.77,SSW,212,2.0,-999.0,24,-99.99,,,0.00,weatherlink.com 1.10,2013-03-27 02:26:00,
2013-03-26 20:41:00,43.3,10.0,29.79,WSW,251,0.0,-999.0,26,-99.99,,,0.00,weatherlink.com 1.10,2013-03-27 02:41:00,
2013-03-26 21:11:00,40.2,12.0,29.82,West,259,4.0,-999.0,31,-99.99,,,0.00,weatherlink.com 1.10,2013-03-27 03:11:00,
2013-03-26 21:26:00,40.3,12.0,29.80,West,264,5.0,-999.0,31,-99.99,,,0.00,weatherlink.com 1.10,2013-03-27 03:26:00,
2013-03-26 21:41:00,40.6,12.0,29.80,West,267,3.0,-999.0,31,-99.99,,,0.00,weatherlink.com 1.10,2013-03-27 03:41:00,
2013-03-26 21:56:00,39.9,11.0,29.81,West,267,0.0,-999.0,31,-99.99,,,0.00,weatherlink.com 1.10,2013-03-27 03:56:00,
2013-03-26 22:12:00,40.1,12.0,29.81,West,267,0.0,-999.0,31,-99.99,,,0.00,weatherlink.com 1.10,2013-03-27 04:12:00,
2013-03-26 22:26:00,41.2,9.0,29.79,West,272,2.0,-999.0,27,-99.99,,,0.00,weatherlink.com 1.10,2013-03-27 04:26:00,
2013-03-26 22:41:00,40.8,10.0,29.77,WNW,283,2.0,-999.0,28,-99.99,,,0.00,weatherlink.com 1.10,2013-03-27 04:41:00,
2013-03-26 22:56:00,40.9,11.0,29.77,WNW,287,2.0,-999.0,29,-99.99,,,0.00,weatherlink.com 1.10,2013-03-27 04:56:00,
2013-03-26 23:11:00,40.5,10.0,29.77,WNW,287,2.0,-999.0,29,-99.99,,,0.00,weatherlink.com 1.10,2013-03-27 05:11:00,
2013-03-26 23:26:00,40.5,11.0,29.76,WNW,287,2.0,-999.0,30,-99.99,,,0.00,weatherlink.com 1.10,2013-03-27 05:26:00,
2013-03-26 23:41:00,41.6,11.0,29.76,WNW,287,0.0,-999.0,28,-99.99,,,0.00,weatherlink.com 1.10,2013-03-27 05:41:00,
2013-03-26 23:56:00,41.5,10.0,29.75,WNW,287,3.0,-999.0,28,-99.99,,,0.00,weatherlink.com 1.10,2013-03-27 05:56:00,